Other Public Products
Issued by NWS Grand Forks, ND

Home | Current Version | Previous Version | Graphics & Text | Print | Product List | Glossary On
Versions: 1 2 3 4 5 6 7 8 9 10 11 12 13 14 15 16 17 18 19 20 21 22 23 24 25 26 27 28 29 30 31 32 33 34 35 36 37 38 39 40 41 42 43 44 45 46 47 48 49 50
431
FPUS83 KFGF 292131
OPUFGF
PRAIRIE TO PINES WEATHER ROUNDUP
NATIONAL WEATHER SERVICE EASTERN NORTH DAKOTA/GRAND FORKS ND
400 PM CDT FRI JUL 29 2016

 **SATELLITE DATA USED TO AUGMENT SKY COVER AT AUTOMATED STATIONS**
 *****  WEATHER ACROSS EASTERN NORTH DAKOTA  *****

CITY           SKY/WX    TMP DP  RH WIND       PRES   REMARKS
GRAND FORKS    PTSUNNY   80  56  43 VRB3      30.03F
GRAND FORKS AF MOSUNNY   78  54  43 VRB2      30.04F
GRAND CITY NWS NOT AVBL
BUXTON           N/A     81  58  46 CALM        N/A
DEVILS LAKE    SUNNY     76  57  51 S3        30.05F
FARGO          CLOUDY    79  59  50 W7        30.03F
WAHPETON ARPT  CLOUDY    77  61  57 W9        30.04S
$$

 *****  WEATHER ACROSS CENTRAL AND WESTERN NORTH DAKOTA  *****

CITY           SKY/WX    TMP DP  RH WIND       PRES   REMARKS
JAMESTOWN      CLOUDY    69  63  81 SW8       30.05S
BISMARCK       MOSUNNY   81  58  45 VRB6      30.02F
MINOT          CLOUDY    82  58  43 S9        30.01F
MINOT AFB      MOSUNNY   79  60  51 S7        30.00F
GARRISON         N/A     77  60  55 S6        30.03F
WILLISTON      PTSUNNY   82  46  28 CALM      30.01F
DICKINSON      PTSUNNY   79  55  43 SE9       30.02F
HETTINGER      MOSUNNY   80  52  37 VRB3      30.04F
$$

 *****  OTHER OBSERVATIONS NORTHEAST NORTH DAKOTA  *****

CITY           SKY/WX    TMP DP  RH WIND       PRES   REMARKS
WALHALLA       FAIR      77  73  88 E7        30.02F
LANGDON        FAIR      79  54  41 SW5G12    30.05F
CAVALIER       FAIR      77  54  44 S6        30.02F
GRAFTON        FAIR      77  55  47 VRB5      30.04F
CANDO          MOCLDY    77  63  61 SE7       30.05F
FORT TOTTEN      N/A     75  59  57 E5        29.95S
ROLLA            N/A     75  55  50 CALM      30.05F
RUGBY          NOT AVBL
 ***** THE ABOVE OBSERVATIONS ARE NON NWS ARE NOT QUALITY
        CONTROLLED AND MAY MIS-REPORT RAIN FOR SNOW...
$$

 *****  OTHER OBSERVATIONS SOUTHEAST NORTH DAKOTA *****

CITY           SKY/WX    TMP DP  RH WIND       PRES   REMARKS
COOPERSTOWN    NOT AVBL
VALLEY CITY    MOCLDY    77  61  57 SE3       30.06F
OAKES            N/A    N/A N/A N/A MISG        N/A
GWINNER        FAIR      79  63  57 W5        30.04F
SHEYENNE NWR     N/A     80  60  49 SW5       29.95
BUFFALO          N/A     79  54  41 SE3         N/A
WYNDMERE         N/A     79  64  61 S7          N/A
 ***** THE ABOVE OBSERVATIONS ARE NON NWS ARE NOT QUALITY
       CONTROLLED AND MAY MIS-REPORT RAIN FOR SNOW...
$$

  *****  WEATHER ACROSS NORTHERN MINNESOTA  *****

CITY           SKY/WX    TMP DP  RH WIND       PRES   REMARKS
FLAG ISLAND    SUNNY     75  52  43 SE5       30.03F
WARROAD        MOSUNNY   75  61  60 E8        30.04F
ROSEAU         MOSUNNY   79  63  57 SW6       30.03F
HALLOCK        SUNNY     77  54  44 CALM      30.02F
THF RVR FALLS  MOSUNNY   76  53  44 SE5       30.05F
HALSTAD          N/A     79  57  46 W8          N/A
FOSSTON        SUNNY     81  54  39 CALM      30.05F
BAUDETTE       SUNNY     80  55  42 S8        30.04F
WASKISH        SUNNY     79  61  53 NW6       30.04F
CROOKSTON      CLOUDY    77  55  47 N3        30.03F
$$
  *****  WEATHER ACROSS CENTRAL AND WEST MINNESOTA  *****

CITY           SKY/WX    TMP DP  RH WIND       PRES   REMARKS
BEMIDJI        PTSUNNY   75  56  51 E3        30.05S
PARK RAPIDS    PTSUNNY   77  56  48 VRB3      30.05F
WADENA         CLOUDY    73  59  60 S3        30.06S
DETROIT LAKES  MOSUNNY   77  57  50 NW8       30.06F
MOORHEAD       PTSUNNY   79  61  53 N6        30.03F
FERGUS FALLS   RAIN      66  64  94 S13G38    30.07R
ELBOW LAKE     MOCLDY    75  62  63 SW5       30.06S
MORRIS MN      MOSUNNY   79  57  47 SW3       30.05F
STAPLES        MOSUNNY   75  54  46 S5        30.06S
WHEATON        PTSUNNY   79  63  57 S6        30.05F
$$
  *****  WEATHER ELSEWHERE ACROSS MINNESOTA  *****

CITY           SKY/WX    TMP DP  RH WIND       PRES   REMARKS
DULUTH         MOSUNNY   73  49  42 VRB6      30.09F
INTRNTL FALLS  SUNNY     78  56  46 VRB7      30.05F
ELY            CLOUDY    75  46  35 CALM      30.08S
CLOQUET        SUNNY     73  39  29 E6        30.08F
BRAINERD       SUNNY     76  53  44 E5        30.07F
HIBBING        MOSUNNY   74  50  42 CALM      30.08F
ALEXANDRIA     MOSUNNY   76  55  48 VRB5      30.08F
SAINT CLOUD    SUNNY     78  56  46 N7        30.06F
MINNEAPOLIS    MOSUNNY   78  50  37 N9        30.03F
$$

  *****  WEATHER ACROSS SOUTH DAKOTA  *****

CITY           SKY/WX    TMP DP  RH WIND       PRES   REMARKS
SIOUX FALLS    MOSUNNY   79  57  46 NE12      30.05F
BROOKINGS      MOSUNNY   77  55  46 NE9       30.07F
WATERTOWN      PTSUNNY   77  54  44 SE5       30.07F
HURON          SUNNY     82  54  37 SE6       30.04F
SISSETON         N/A     75  58  55 W3        30.04F
ABERDEEN       NOT AVBL
MITCHELL       SUNNY     82  54  37 E6        30.05F
PIERRE         MOSUNNY   82  56  40 S14G20    30.01F
MOBRIDGE       MOSUNNY   82  59  45 SE14      30.01F
RAPID CITY     MOSUNNY   80  55  42 SW9       30.05F
$$

  *****  SOME WEATHER IN NEARBY STATES *****

CITY           SKY/WX    TMP DP  RH WIND       PRES   REMARKS
GLASGOW MT     MOSUNNY   78  56  46 E8        30.00F
GREAT FALLS MT SUNNY     84  48  28 VRB6      30.04F
CHEYENNE WY    PTSUNNY   76  52  43 SE17G29   30.14F
SCOTTSBLUFF NE PTSUNNY   83  59  44 SE14      30.04F
OMAHA NE       MOSUNNY   82  61  48 N10       30.01F
DES MOINES IA  CLOUDY    72  64  76 N13       29.99F
DAVENPORT IA   MOSUNNY   77  68  73 N8        29.92S
CHICAGO IL     LGT RAIN  73  70  90 NE10      29.92F FOG
EAU CLAIRE WI  MOSUNNY   79  58  48 N7        30.01F
LA CROSSE WI   CLOUDY    76  64  66 NE6       29.98F
$$

  *****  SOME NATIONAL WEATHER *****

CITY           SKY/WX    TMP DP  RH WIND       PRES   REMARKS
LA GUARDIA NY  MOSUNNY   84  68  58 NE8       29.83S
RALEIGH NC     MOSUNNY   89  69  51 N3        29.91F HX  93
ATLANTA GA     PTSUNNY   91  69  48 NW13      29.99S HX  96
NEW ORLEANS LA PTSUNNY   92  74  55 N6        29.98F THUNDER HX 101
OKLAHOMA CITY  CLOUDY    83  68  60 NE7       29.99S
ALBUQUERQUE NM CLOUDY    90  46  21 SW20G29   30.12F
SALT LAKE CITY MOSUNNY   99  35  10 VRB6      29.99F HX  93
LOS ANGELES CA MOSUNNY   77  64  64 W13       29.83F
BOISE ID       SUNNY     96  41  15 NW8       29.93F HX  92
SEATTLE WA     SUNNY     85  59  41 N15       29.99F
$$

*** WEATHER ACROSS MANITOBA...SASKATCHEWAN AND ONTARIO ***
                ***ONTARIO***

CITY           SKY/WX    TMP DP  RH WIND       PRES   REMARKS
GERALDTON      MOSUNNY   75  52  43 VRB6      30.07S
THUNDER BAY    PTSUNNY   77  52  41 SE14      30.07S
SIOUX LOOKOUT  PTSUNNY   79  54  41 VRB6      30.05F
TORONTO        PTSUNNY   81  59  47 E6        29.95S
BIG TROUT LK   MOSUNNY   77  54  44 S3        29.98F
PICKLE LAKE    PTSUNNY   81  46  30 SW7       30.01F
DRYDEN         SUNNY     77  46  33 E3        30.06F
KENORA         PTSUNNY   75  54  46 SW10      30.06F
$$
                *** MANITOBA***

CITY           SKY/WX    TMP DP  RH WIND       PRES   REMARKS
BRANDON        MOSUNNY   79  52  38 SW9G17    30.01F
DAUPHIN        SUNNY     82  55  39 SW6       29.96F
ISLAND LAKE    CLOUDY    75  61  60 S5        29.95R
PILOT MOUND      N/A     73  55  53 S6          N/A
THE PAS        MOSUNNY   75  61  60 S8        29.89F
THOMPSON       TSTM      63  59  88 N8        29.93S
WINNIPEG       MOSUNNY   77  55  47 SE9       30.02F
LYNN LAKE      CLOUDY    64  61  88 MISG      29.90F
CHURCHILL      PTSUNNY   63  46  55 E8        30.03F
GILLAM         PTSUNNY   72  52  49 E7        29.98F
$$
                ***SASKATCHEWAN***

CITY           SKY/WX    TMP DP  RH WIND       PRES   REMARKS
ESTEVAN        CLOUDY    75  54  46 VRB7      30.01F
KINDERSLEY     MOSUNNY   77  57  50 W7        29.98F
LLOYDMINSTER   MOSUNNY   79  57  47 W10       29.93F
PRINCE ALBERT  PTSUNNY   73  63  68 SW3       29.91F
REGINA         PTSUNNY   77  64  65 NW7       29.97F
YORKTON        SUNNY     79  54  41 S13       29.97F   C1F1C2F2C3F3C4F4C5F5C6F6C7F7C8F8C9F9CaFaCbFbCcFcCdFdCe!



USA.gov is the U.S. government's official web portal to all federal, state and local government web resources and services.